Location: Conflandey
(47.7287°N, 6.0456°E)
Time: 21:09:24
(UTC+00:00)

NOSS 2-3 (C) - Pass Details

Date: 24 October 2021
Orbit: 541 x 1670 km, 63.3° (Epoch: 04 December)

Event Time Altitude Azimuth Distance (km) Brightness Sun altitude
Rises 18:21:58 0° 229° (SW) 2,702 7.6 -19.3°
Reaches altitude 10° 18:24:03 10° 233° (SW) 1,847 6.7 -19.6°
Maximum altitude 18:28:04 63° 315° (NW) 692 3.9 -20.3°
Enters shadow 18:30:53 23° 31° (NNE) 1,429 5.2 -20.8°
